This is the latest recevied weather packets stored in our database for station/object K2RMB. If no packets are shown the sender has not sent any weather packets the latest 10 day(s).
| Time | Temp. | Humidity | Pressure | Rain* | Wind** | Luminosity | Snow |
|---|---|---|---|---|---|---|---|
| 1777461235 | 9.44° C | 59% | 1017.1 hPa | 0 mm | - | 84 W/m² | - |
| 1777460930 | 9.44° C | 61% | 1017.1 hPa | 0 mm | - | 86 W/m² | - |
| 1777460626 | 8.89° C | 62% | 1017.1 hPa | 0 mm | - | 72 W/m² | - |
| 1777460322 | 8.89° C | 62% | 1017.1 hPa | 0 mm | - | 55 W/m² | - |
| 1777460019 | 8.33° C | 62% | 1017.1 hPa | 0 mm | - | 56 W/m² | - |
| 1777459716 | 8.33° C | 64% | 1017.1 hPa | 0 mm | - | 50 W/m² | - |
| 1777459111 | 8.33° C | 64% | 1017.1 hPa | 0 mm | - | 41 W/m² | - |
| 1777458808 | 8.33° C | 65% | 1017.1 hPa | 0 mm | - | 35 W/m² | - |
| 1777458504 | 7.78° C | 63% | 1017.1 hPa | 0 mm | - | 29 W/m² | - |
| 1777457896 | 7.78° C | 63% | 1016.7 hPa | 0 mm | - | 17 W/m² | - |
| 1777457592 | 7.78° C | 65% | 1016.7 hPa | 0 mm | - | 14 W/m² | - |
| 1777457287 | 8.33° C | 63% | 1016.7 hPa | 0 mm | - | 11 W/m² | - |
| 1777456678 | 8.33° C | 62% | 1017.1 hPa | 0 mm | - | 4 W/m² | - |
| 1777456373 | 7.78° C | 63% | 1016.7 hPa | 0 mm | - | 3 W/m² | - |
| 1777455766 | 7.78° C | 62% | 1017.1 hPa | 0 mm | - | 1 W/m² | - |
| 1777455463 | 7.78° C | 60% | 1017.1 hPa | 0 mm | - | 0 W/m² | - |
| 1777455159 | 8.33° C | 59% | 1017.1 hPa | 0 mm | - | 0 W/m² | - |
| 1777454857 | 7.78° C | 63% | 1017.1 hPa | 0 mm | - | 0 W/m² | - |
| 1777454553 | 7.78° C | 60% | 1016.7 hPa | 0 mm | - | 0 W/m² | - |
| 1777454249 | 7.78° C | 61% | 1017.1 hPa | 0 mm | - | 0 W/m² | - |
| 1777453947 | 7.78° C | 61% | 1017.1 hPa | 0 mm | - | 0 W/m² | - |
| 1777453643 | 7.78° C | 59% | 1016.7 hPa | 0 mm | - | 0 W/m² | - |
| 1777453340 | 7.78° C | 58% | 1017.1 hPa | 0 mm | - | 0 W/m² | - |
| 1777453037 | 8.33° C | 57% | 1016.7 hPa | 0 mm | - | 0 W/m² | - |
| 1777452734 | 7.78° C | 58% | 1016.4 hPa | 0 mm | - | 0 W/m² | - |
* Rain latest hour (hover to see other rain measurements)
** Current wind speed in m/s (hover to see current wind gust speed)